Dewpoint
61 61 61 61 61 61 62 62 62 62 63 63 63 63 63 63 63 63 63 63 63 63 62 62 62 62 62 62 62 61 61 60 58 57 53 53 54 59 58 63 63 65 62 45 37 33 27 24 23 25 31 32 42 38 49 44 43 44 38 34 30 27 21 18 20 20 25 24 23 23 22 20 21 25 25 25 19 22 23 34 36 44 46 58 59 58 59 60
61 61 60 61 61 61 61 62 62 62 62 63 63 63 62 63 63 62 63 63 63 62 62 63 62 62 62 62 62 60 58 57 55 56 54 55 57 57 58 60 63 65 60 43 35 31 27 21 23 26 26 27 50 38 37 42 43 40 35 32 27 26 20 13 16 17 16 21 23 22 22 18 20 21 22 19 16 20 20 31 32 44 46 53 60 59 60 60
61 61 60 60 61 61 61 61 61 61 62 62 62 62 62 62 62 62 63 63 62 62 62 62 62 62 62 62 59 59 57 55 55 54 55 59 57 55 57 60 64 65 47 35 34 30 27 21 24 24 25 21 34 32 39 35 34 33 34 29 32 26 18 17 17 18 18 19 19 20 22 21 19 20 23 23 15 18 17 26 26 41 45 51 59 59 60 60
61 60 60 60 60 61 61 61 61 61 62 62 61 61 62 62 62 62 62 62 62 62 61 61 61 62 61 60 59 58 56 55 53 55 53 62 61 61 61 61 62 64 54 42 36 31 28 24 24 23 30 20 29 30 30 36 28 30 28 30 29 18 20 19 18 19 19 19 18 19 23 19 19 20 18 19 14 16 15 23 22 32 45 53 58 59 59 59
60 61 60 60 60 61 60 60 60 61 61 61 61 61 61 61 61 62 62 62 62 62 61 61 61 62 60 58 59 58 55 51 53 56 53 59 60 59 60 61 61 59 53 43 38 33 30 24 22 23 29 21 25 24 24 29 24 34 24 25 20 20 21 21 20 21 20 20 16 20 20 18 21 20 19 16 16 11 17 21 27 24 45 54 57 58 59 59
60 60 60 60 60 60 59 60 60 60 61 61 61 61 61 61 61 61 61 62 61 62 61 60 61 61 58 58 58 57 54 42 54 53 60 59 58 59 60 61 61 57 50 43 39 32 28 25 24 22 19 20 23 21 21 23 25 25 21 20 21 21 20 23 22 24 22 20 18 17 17 18 17 19 19 19 17 19 25 23 26 40 49 55 58 58 58 59
60 60 60 60 60 60 60 60 60 60 61 61 61 61 61 61 61 61 61 60 61 61 61 60 60 59 56 56 56 56 53 56 44 57 61 61 60 60 60 61 62 56 47 39 38 31 27 25 23 19 18 21 23 21 21 20 23 24 17 20 21 22 21 22 22 27 19 21 17 21 20 18 16 15 21 21 19 21 26 26 27 39 51 55 57 58 58 59
59 59 59 59 59 60 60 60 60 60 61 61 60 60 61 60 60 61 60 60 61 60 61 60 60 57 55 52 53 52 53 53 53 60 65 64 64 63 61 56 57 55 44 38 36 28 25 24 21 19 17 20 22 21 21 19 21 21 19 21 21 20 21 21 21 19 21 19 20 22 20 18 19 19 20 19 18 24 27 29 35 39 48 54 56 57 58 58
58 59 59 59 59 59 59 60 59 59 60 60 60 60 60 60 60 60 61 61 61 60 60 60 59 56 55 52 51 50 50 54 53 62 65 64 64 62 59 56 56 49 42 39 34 27 26 24 23 18 16 20 20 19 21 18 17 18 19 20 20 19 19 19 19 20 20 20 22 19 18 19 20 22 20 18 20 25 30 34 35 38 41 46 53 54 56 57
58 59 59 59 58 58 59 58 59 59 60 60 60 60 60 60 60 60 60 60 60 60 60 60 58 56 54 52 53 49 49 55 60 63 61 60 59 60 56 53 53 45 40 35 30 27 25 26 24 20 21 20 19 17 21 18 18 20 19 20 19 19 20 22 19 19 21 22 20 18 17 20 21 20 13 20 22 24 26 32 32 34 36 39 44 48 52 54
58 59 59 59 59 59 59 58 59 58 60 60 60 60 60 59 59 60 60 60 60 60 59 59 58 56 52 48 50 48 49 54 61 62 54 54 53 54 52 46 49 43 38 32 29 27 25 26 27 28 31 18 17 18 19 21 22 19 20 20 19 19 21 22 19 20 20 20 21 21 18 20 22 22 13 19 22 22 25 32 31 32 31 35 41 45 48 51
58 59 59 59 59 59 59 58 58 59 59 60 59 60 59 59 59 60 60 60 60 59 58 59 57 55 53 52 48 43 47 50 60 60 54 51 50 49 48 41 44 43 36 31 31 34 30 30 39 17 17 25 15 19 20 20 23 20 19 17 20 19 18 19 18 20 23 20 22 19 18 18 21 16 17 19 22 23 20 29 31 31 31 34 37 46 49 50
58 58 59 58 58 58 59 59 59 59 59 59 59 59 59 59 59 59 59 59 59 59 60 59 58 57 49 40 41 47 46 49 57 57 51 49 46 43 43 47 46 39 36 33 29 34 40 37 32 19 19 21 18 16 26 25 20 19 18 18 17 17 17 20 20 20 22 22 23 21 15 13 16 16 18 20 20 21 22 25 32 30 30 36 39 45 49 50
58 58 58 58 58 59 59 58 58 59 59 59 59 58 58 58 58 58 58 58 58 59 59 60 58 54 51 34 43 46 45 46 53 51 48 43 39 48 45 47 47 40 48 35 39 39 42 28 36 23 21 19 19 25 23 22 19 16 14 16 21 17 17 20 21 18 19 22 20 23 20 10 16 17 21 21 20 18 17 18 28 29 30 38 44 45 48 49
58 58 58 58 58 58 58 58 58 58 58 59 58 58 58 57 57 58 58 57 58 58 59 59 57 52 40 26 44 48 55 45 47 47 45 38 38 42 40 41 40 40 35 32 40 38 32 39 33 22 17 23 25 21 16 20 18 15 13 17 23 17 23 19 23 17 15 19 20 18 23 11 15 17 21 23 22 18 15 13 18 25 29 31 38 43 45 48
57 57 58 58 57 57 57 58 57 58 58 58 57 57 57 57 57 57 57 57 58 58 58 54 52 52 37 23 39 55 43 39 40 44 44 39 41 36 39 38 41 37 35 30 36 30 25 25 17 17 18 21 18 17 15 20 19 15 18 24 21 20 22 21 19 23 26 17 21 14 12 8 13 17 19 20 18 19 15 14 16 18 24 31 36 38 40 44
57 57 57 57 57 57 57 57 57 57 57 57 57 57 57 57 57 57 57 57 57 57 53 48 51 53 30 40 45 42 37 45 45 46 43 44 42 41 37 37 33 31 31 38 33 34 23 20 32 28 22 15 15 17 18 20 18 19 21 20 25 16 18 17 21 23 32 19 14 16 13 10 17 18 20 20 20 17 14 12 14 16 17 19 27 32 34 37
57 57 57 57 57 57 57 57 57 57 57 57 56 56 56 57 57 56 56 56 56 54 53 48 51 43 33 36 37 36 40 40 45 41 43 41 45 35 33 30 31 27 26 23 29 21 22 18 20 18 20 16 14 16 19 15 19 19 18 22 18 15 16 13 16 18 24 21 18 13 13 11 13 19 19 19 19 17 14 13 13 14 17 19 21 21 23 28
57 57 57 57 57 57 57 56 56 57 57 57 57 57 57 57 57 54 50 51 49 45 40 41 43 28 23 29 35 37 40 43 42 40 36 38 45 38 35 32 30 23 26 20 21 20 24 31 29 23 17 14 12 12 17 22 15 18 18 19 24 18 16 14 23 23 20 17 17 14 13 12 12 14 18 19 20 18 15 15 17 17 17 19 22 23 23 26
57 57 57 57 57 57 57 56 56 57 57 55 54 54 53 49 49 47 47 46 41 36 25 35 41 29 26 29 38 41 42 40 35 41 40 47 35 33 31 28 38 23 20 21 24 18 31 25 19 17 17 14 13 13 13 14 14 15 18 19 19 19 19 22 22 23 25 21 14 14 14 13 14 12 14 19 19 20 16 14 18 22 24 23 22 26 26 28
57 57 57 57 56 56 56 56 56 57 56 53 52 50 44 44 40 38 40 42 42 33 29 36 38 34 33 38 39 37 33 35 36 41 39 48 37 30 27 25 24 19 19 20 21 21 17 23 23 18 15 14 13 11 12 13 13 13 15 17 15 23 13 20 20 23 23 19 16 15 13 14 12 11 11 16 18 18 18 17 16 20 21 24 27 29 30 34
56 56 56 56 56 56 56 56 57 55 54 51 51 45 42 42 40 40 39 38 43 37 34 36 35 36 37 36 41 39 36 33 36 40 47 40 32 27 25 23 21 18 17 19 21 22 20 19 20 16 15 14 11 10 14 13 19 22 15 18 18 19 23 22 21 22 22 13 9 18 16 16 15 14 14 13 16 19 19 19 18 17 20 22 27 33 36 39
56 56 56 56 56 56 55 56 56 54 50 50 48 45 41 44 46 40 33 34 30 39 29 32 29 34 35 36 37 39 28 28 32 38 36 44 30 30 24 22 19 15 15 15 21 26 22 23 17 16 15 15 12 12 11 22 22 20 21 20 16 24 20 23 20 22 23 20 22 22 20 18 16 14 13 13 12 19 27 25 31 32 28 29 26 32 34 36
56 56 56 56 56 55 57 56 55 52 49 49 48 46 47 50 52 31 30 28 26 30 32 28 29 34 34 32 36 36 24 29 33 35 38 36 27 33 24 22 18 14 13 13 18 21 19 20 21 20 15 14 12 12 13 15 14 26 28 22 24 24 19 21 19 20 21 22 23 18 18 12 12 12 11 16 19 18 23 25 22 29 33 36 40 38 39 32
56 55 56 56 55 55 55 55 51 49 49 48 48 49 51 51 53 49 25 22 27 32 39 42 46 40 36 45 40 34 31 33 35 34 36 34 27 26 23 23 15 13 14 13 17 20 17 23 25 19 19 15 16 11 19 24 13 27 30 32 21 17 20 21 21 16 18 20 25 22 10 20 15 10 9 15 14 15 21 21 23 30 35 36 34 38 42 44
55 55 55 55 55 55 55 51 50 50 48 47 48 49 51 54 51 49 34 23 23 32 37 30 43 30 42 34 41 36 29 29 36 44 35 42 40 29 22 19 24 13 15 18 18 28 20 25 28 20 20 26 22 14 24 20 14 22 19 22 16 19 23 22 21 25 14 12 22 19 9 13 19 10 8 13 14 13 23 25 24 31 32 35 38 39 42 42
55 55 55 55 55 55 50 46 49 49 47 47 48 50 52 52 51 47 30 26 22 31 25 30 36 36 42 33 30 29 20 26 40 38 36 43 31 32 18 21 23 22 20 18 21 21 23 23 27 30 22 29 24 14 21 14 15 14 34 33 18 25 26 25 23 28 27 25 25 22 26 14 17 19 13 10 12 17 22 22 25 29 30 32 35 38 40 41
55 55 55 55 55 53 47 48 48 47 45 47 49 51 50 51 50 42 30 21 20 29 25 28 32 41 40 34 40 24 30 32 30 32 35 43 36 28 25 20 19 23 24 22 16 35 25 27 31 29 30 24 20 29 35 15 20 26 32 38 24 20 28 31 27 26 28 23 20 20 28 8 14 16 11 8 9 12 18 22 24 28 30 34 36 40 40 41
55 55 54 54 55 52 50 48 47 45 47 50 49 51 50 46 46 30 23 18 31 21 38 20 40 38 31 32 30 33 31 30 26 31 41 39 38 29 21 21 21 25 30 27 17 33 32 33 27 26 26 21 29 29 34 36 27 29 35 37 34 31 32 32 22 26 22 17 18 19 23 10 15 24 11 11 8 8 12 20 24 29 32 35 36 38 39 41
55 54 54 54 52 50 49 48 46 47 51 52 51 49 48 44 29 23 17 14 28 21 22 31 31 29 29 27 27 31 29 32 31 32 30 27 33 38 28 34 22 26 36 33 32 33 30 32 29 33 32 31 28 30 36 32 30 33 36 30 30 29 27 24 25 22 18 12 21 24 23 21 14 22 14 15 18 8 11 21 27 31 35 35 38 39 40 40
54 54 54 53 48 50 46 45 46 51 51 51 49 46 42 36 23 18 14 23 25 27 25 26 26 29 27 25 25 30 29 30 29 29 27 27 26 27 25 23 32 32 32 33 34 33 29 27 35 35 32 30 28 32 35 36 34 34 28 26 23 22 22 20 20 21 16 16 19 20 24 25 9 16 19 9 9 13 13 22 27 30 32 35 36 36 37 39
54 54 53 50 50 52 45 44 47 52 52 50 45 41 26 20 24 17 16 21 19 24 24 23 27 27 26 25 28 28 29 29 28 27 26 25 26 23 22 23 26 23 21 22 25 33 31 33 35 37 35 30 35 25 26 35 35 31 25 20 19 19 19 14 17 14 16 13 14 17 23 18 15 10 6 6 11 17 20 22 26 29 32 35 36 38 39 40
54 53 53 50 51 50 53 51 52 51 51 48 40 33 21 19 15 19 20 19 19 24 23 25 25 26 25 25 26 29 32 27 28 26 26 28 24 27 27 23 27 22 18 25 30 30 31 35 35 36 34 27 32 20 24 23 27 28 20 20 19 18 12 10 15 14 15 15 19 19 21 13 17 9 14 10 13 21 27 28 30 31 33 35 37 38 40 41
53 53 50 51 54 54 53 52 51 50 49 47 33 26 22 19 17 28 23 21 28 22 22 23 25 25 23 23 28 30 29 30 26 25 26 27 25 24 24 27 24 25 29 26 23 24 24 20 26 31 26 30 29 24 23 24 25 23 25 22 22 22 13 7 15 12 14 19 15 20 11 19 5 10 16 18 20 23 27 31 34 35 36 37 38 40 39 40
53 51 52 52 53 53 53 52 50 49 47 41 27 22 20 19 21 18 20 24 25 20 22 25 24 25 23 27 29 28 30 30 29 26 26 25 23 24 23 24 24 24 30 21 26 20 21 25 32 34 36 32 31 36 30 30 25 29 33 31 20 22 21 17 19 19 17 14 13 13 13 17 16 18 19 20 22 23 27 29 32 32 33 36 35 36 36 38
51 51 52 51 51 52 53 52 50 49 45 33 22 21 19 21 20 22 22 23 19 23 23 23 26 22 22 29 30 28 35 30 29 27 27 26 25 24 26 26 25 26 24 18 24 18 22 23 35 37 33 29 33 31 27 28 17 24 25 20 24 27 20 19 19 19 15 12 16 20 16 19 14 14 17 19 18 21 24 26 28 30 33 34 35 36 37 40
49 51 49 50 51 52 52 53 50 49 46 28 23 20 23 21 39 25 32 20 19 22 23 19 22 20 24 27 27 28 32 32 30 27 25 28 25 24 25 24 26 26 25 25 22 33 18 28 33 34 32 31 33 33 34 29 32 25 19 25 28 28 27 17 10 13 12 8 10 14 11 8 6 14 17 18 18 19 23 24 26 30 33 33 37 38 39 40
49 49 48 49 51 53 52 53 50 48 43 28 23 28 32 27 37 33 28 26 24 24 21 20 22 24 26 26 25 27 31 27 28 30 27 26 26 26 24 23 25 25 24 29 21 27 28 22 30 32 33 33 36 36 28 34 32 26 25 31 18 14 12 14 9 7 5 3 6 9 10 10 10 14 14 16 16 17 21 24 25 29 31 34 36 38 38 38
48 48 44 49 53 53 52 52 50 44 37 27 24 28 33 41 41 32 25 25 28 22 20 23 21 25 27 25 26 27 29 24 28 28 26 26 23 26 24 25 28 24 24 23 27 32 33 27 26 32 32 33 33 29 22 24 33 33 30 24 30 20 18 15 12 16 21 10 1 13 6 11 21 16 14 14 16 17 19 24 24 27 29 33 36 37 37 37
47 45 42 50 53 53 52 51 46 40 33 26 25 27 38 35 38 41 36 27 26 20 26 26 27 25 26 26 26 26 29 28 27 28 27 29 26 29 24 30 26 26 23 26 33 33 21 28 24 29 34 33 24 27 24 24 24 22 20 18 20 23 24 21 20 12 14 9 9 7 8 17 18 11 15 14 15 15 18 23 25 27 29 33 35 37 37 38
49 43 42 49 52 52 51 48 39 36 31 28 28 37 35 34 38 41 43 43 33 32 22 27 25 24 25 25 23 27 26 29 28 26 27 26 23 22 26 26 29 24 25 29 30 30 24 20 27 27 27 26 28 33 30 31 24 22 22 20 18 20 15 12 15 18 15 10 10 3 10 13 21 13 14 12 15 15 18 24 26 27 29 33 36 36 37 39
44 38 42 50 52 52 48 39 36 34 33 27 27 36 37 38 35 38 39 38 35 32 34 28 28 30 28 25 26 27 25 28 27 26 28 26 24 27 29 28 25 24 22 20 23 36 31 31 28 26 27 28 32 31 29 31 32 28 28 24 23 22 19 16 12 20 13 13 15 16 5 20 21 17 19 18 19 15 18 24 25 28 30 33 35 36 38 39
44 39 46 50 50 51 43 34 35 34 32 33 39 39 39 36 35 38 36 37 36 39 33 33 29 30 32 31 29 27 28 28 28 26 29 30 25 25 34 27 26 23 23 29 29 30 35 29 28 27 28 30 29 33 32 31 34 29 30 31 27 20 20 19 15 19 19 14 7 9 5 18 21 27 26 24 21 22 18 24 25 26 30 33 35 37 38 38
42 41 44 50 50 50 42 30 31 32 31 37 37 40 42 39 36 35 34 38 35 34 32 35 32 28 33 35 27 25 27 23 30 30 27 31 25 34 34 27 24 26 24 25 20 31 20 26 26 26 25 24 25 29 28 31 32 27 26 27 30 30 28 23 20 21 16 19 19 14 9 18 28 23 22 21 15 17 20 23 27 28 32 34 35 37 38 38
42 44 44 46 49 48 40 36 31 30 33 34 36 35 36 39 41 36 34 37 39 31 33 31 34 35 34 34 29 30 28 27 27 32 37 31 34 37 35 34 24 24 38 38 34 31 27 28 26 22 19 17 17 19 21 24 25 27 29 29 29 31 26 21 18 16 13 22 17 13 15 15 17 21 16 17 15 14 21 25 28 30 32 34 36 37 38 38
40 34 41 43 46 45 45 44 42 32 33 34 31 35 34 35 38 41 41 39 39 39 36 38 38 34 33 31 30 29 28 36 32 29 29 30 32 32 38 33 29 34 34 37 34 26 25 28 23 21 19 17 18 21 25 30 27 25 26 29 28 28 29 25 24 21 17 22 19 18 16 19 17 20 18 17 17 14 19 26 27 31 33 35 36 37 37 37
40 36 38 35 42 43 42 41 40 34 32 33 28 31 30 32 36 37 41 33 37 38 38 36 35 29 31 30 29 28 29 32 34 30 29 31 35 35 36 38 35 35 35 34 32 28 28 24 27 25 23 20 21 23 28 26 24 25 26 27 29 27 28 27 22 19 20 19 19 23 24 20 16 20 20 19 19 17 20 26 28 31 33 35 35 36 37 37
35 36 39 41 37 35 37 38 39 34 35 31 31 31 31 33 31 31 38 40 39 39 32 34 35 31 30 29 30 26 29 31 33 28 33 33 32 33 30 36 32 37 33 31 33 26 24 22 27 26 25 25 28 30 28 26 24 25 26 26 28 29 28 26 25 24 25 21 16 19 23 21 17 18 19 19 18 14 16 23 27 30 32 34 35 35 36 36
38 36 38 39 35 38 39 39 39 36 34 30 32 30 31 30 29 33 35 37 37 34 38 28 31 34 31 32 29 28 29 26 25 33 29 30 28 29 29 30 30 36 34 29 30 34 21 23 26 27 25 26 29 30 31 28 26 27 28 27 28 29 28 26 25 25 24 24 23 20 23 24 22 21 19 20 20 17 16 23 30 31 32 33 34 34 35 36
33 34 34 39 39 38 37 38 39 38 32 31 31 30 32 29 29 34 37 35 31 32 39 35 31 35 33 33 30 28 30 27 27 29 34 30 27 27 26 29 30 29 32 28 30 28 24 23 27 27 22 24 31 30 29 31 29 26 30 30 29 29 29 28 26 26 26 25 24 24 24 25 25 27 24 26 22 24 25 24 26 30 32 33 33 34 35 35
37 36 38 37 35 36 36 37 36 35 31 29 31 32 32 30 30 34 39 42 33 30 35 33 34 36 35 34 32 32 34 32 32 32 32 30 26 31 25 29 29 28 29 30 34 33 27 27 28 26 23 22 30 25 28 27 25 25 28 31 31 29 28 28 27 26 24 24 25 24 24 22 22 27 30 27 23 22 23 24 26 29 32 32 33 33 34 35
40 41 38 38 33 35 35 35 35 34 31 30 32 32 31 31 36 37 35 40 42 41 36 37 36 34 35 34 32 38 41 40 39 36 34 40 36 36 40 33 28 28 28 28 32 31 27 29 24 24 22 21 28 28 25 23 20 19 22 30 31 30 28 28 28 28 27 26 24 24 22 22 22 28 24 26 23 21 23 25 26 29 31 32 32 32 33 34